Terminal Aerodrome Forecast
Issued by NWS

Home | Current Version | Previous Version | Text Only | Print | Product List | Glossary On
Versions: 1 2 3 4 5 6 7 8 9 10 11 12 13 14 15
755
FTUS41 KLWX 102115 AAA
TAFMTN
TAF AMD
KMTN 102115Z 1021/1118 28012KT P6SM BKN090
     FM110900 28013G22KT P6SM SCT050=

USA.gov is the U.S. government's official web portal to all federal, state and local government web resources and services.